DW9945 Weather Reports


time (UTC)temp
C
wind
direction
speed
KPH
gust
KPH
rain 1hr
cm
rain 24hr
cm
rain mn
cm
humidity
%
barometer
mb
20260510183518 13 200 11.3 19.3 0.00 0.79 0.56 71 1012.5
20260510183018 13 186 14.5 22.5 0.00 0.79 0.56 70 1012.6
20260510182017 14 192 14.5 27.4 0.00 0.79 0.56 68 1012.7
20260510181518 14 199 11.3 20.9 0.00 0.79 0.56 64 1012.6
20260510181018 14 222 11.3 22.5 0.00 0.79 0.56 61 1012.7
20260510180518 14 205 9.7 19.3 0.00 0.79 0.56 61 1012.7
20260510180007 14 223 14.5 22.5 0.00 0.79 0.56 61 1012.7
20260510175506 15 217 14.5 25.7 0.00 0.79 0.56 58 1012.6
20260510175017 15 248 11.3 24.1 0.00 0.79 0.56 57 1012.6
20260510174518 15 227 14.5 27.4 0.00 0.79 0.56 57 1012.8
20260510174017 15 225 14.5 22.5 0.00 0.79 0.56 57 1012.5
20260510173017 15 231 12.9 25.7 0.00 0.79 0.56 56 1012.6
20260510172517 15 251 16.1 25.7 0.00 0.79 0.56 54 1012.6
20260510172017 15 242 16.1 27.4 0.00 0.79 0.56 54 1012.5
20260510171518 15 208 14.5 25.7 0.00 0.79 0.56 56 1012.6
20260510171017 15 227 16.1 32.2 0.00 0.79 0.56 57 1012.6
20260510170506 15 228 20.9 29.0 0.00 0.79 0.56 56 1012.5
20260510170009 15 233 14.5 25.7 0.00 0.79 0.56 56 1012.4
20260510165517 15 245 9.7 27.4 0.00 0.79 0.56 59 1012.5
20260510165024 15 236 16.1 29.0 0.00 0.79 0.56 57 1012.4
20260510164518 15 255 14.5 32.2 0.00 0.89 0.56 60 1012.4
20260510164018 15 203 12.9 32.2 0.00 0.91 0.56 61 1012.2
20260510163518 15 208 16.1 29.0 0.00 0.94 0.56 61 1012.4
20260510162518 14 209 11.3 20.9 0.00 0.94 0.56 64 1012.2
20260510161518 13 202 12.9 20.9 0.00 0.94 0.56 70 1012.5
20260510161018 13 200 12.9 20.9 0.00 0.94 0.56 70 1012.4
20260510160518 13 191 16.1 25.7 0.00 0.94 0.56 68 1012.5
20260510160018 13 230 12.9 25.7 0.00 0.94 0.56 66 1012.3
20260510155517 13 226 11.3 24.1 0.00 0.94 0.56 66 1012.5
20260510155018 13 233 11.3 20.9 0.00 0.94 0.56 68 1012.4
20260510154017 13 239 11.3 25.7 0.00 0.94 0.56 68 1012.5
20260510153518 13 236 11.3 19.3 0.00 0.94 0.56 67 1012.5
20260510153018 13 252 6.4 20.9 0.00 0.94 0.56 69 1012.6
20260510152517 13 250 16.1 25.7 0.00 0.94 0.56 66 1012.6
20260510152018 13 232 16.1 27.4 0.00 0.94 0.56 69 1012.6
20260510151517 13 216 8.0 19.3 0.00 0.94 0.56 71 1012.6
20260510151017 13 258 11.3 22.5 0.00 0.94 0.56 72 1012.6
20260510150518 12 210 11.3 20.9 0.00 0.94 0.56 73 1012.7
20260510145006 12 237 11.3 27.4 0.00 0.94 0.56 75 1012.9
20260510144518 12 231 17.7 29.0 0.00 0.94 0.56 74 1013.0
20260510144017 12 226 16.1 27.4 0.00 0.94 0.56 76 1012.9
20260510143517 12 237 11.3 19.3 0.00 0.94 0.56 77 1012.9
20260510143018 12 241 12.9 19.3 0.00 0.94 0.56 77 1012.9
20260510142518 12 240 11.3 22.5 0.00 0.94 0.56 77 1012.8
20260510141518 12 232 11.3 19.3 0.00 0.94 0.56 77 1012.8
20260510141018 12 245 12.9 19.3 0.00 0.94 0.56 77 1012.8
20260510140507 12 251 11.3 19.3 0.00 0.94 0.56 77 1012.8
20260510140017 12 260 4.8 19.3 0.00 0.94 0.56 78 1013.0
20260510135518 12 239 8.0 19.3 0.00 0.94 0.56 77 1012.9
20260510135018 12 241 8.0 19.3 0.00 0.94 0.56 75 1012.9
20260510134518 12 248 9.7 22.5 0.00 0.94 0.56 76 1012.8
20260510134018 12 216 9.7 19.3 0.00 0.94 0.56 76 1012.7
20260510133507 12 232 11.3 19.3 0.00 0.94 0.56 74 1012.7
20260510132506 12 210 11.3 22.5 0.00 0.99 0.56 74 1012.8
20260510132020 12 239 11.3 20.9 0.00 1.02 0.56 75 1012.8
20260510131517 12 210 11.3 16.1 0.00 1.04 0.56 77 1012.8
20260510131018 12 193 11.3 19.3 0.00 1.09 0.56 78 1012.9
20260510130518 12 196 9.7 14.5 0.00 1.17 0.56 79 1012.9
20260510125017 11 235 8.0 16.1 0.00 1.30 0.56 81 1012.9
20260510124517 11 222 9.7 19.3 0.03 1.35 0.56 78 1013.1
20260510123506 11 217 11.3 19.3 0.10 1.35 0.56 79 1013.2
20260510123018 11 246 11.3 19.3 0.10 1.35 0.56 79 1013.3
20260510122507 11 213 9.7 19.3 0.10 1.35 0.56 79 1013.1
20260510122018 11 251 9.7 19.3 0.10 1.35 0.56 80 1012.9
20260510121017 11 247 6.4 12.9 0.10 1.35 0.56 84 1013.1
20260510120518 11 231 4.8 12.9 0.10 1.35 0.56 86 1013.3
20260510120018 10 279 6.4 19.3 0.10 1.35 0.56 87 1013.3
20260510115518 10 258 9.7 22.5 0.10 1.35 0.56 85 1013.3
20260510115017 10 246 12.9 22.5 0.13 1.35 0.56 86 1013.3
20260510114517 10 248 12.9 24.1 0.28 1.32 0.53 86 1013.3
20260510114017 11 239 16.1 24.1 0.28 1.27 0.51 84 1013.4
20260510113518 11 245 16.1 27.4 0.23 1.24 0.46 82 1013.4
20260510113017 11 224 17.7 32.2 0.23 1.24 0.46 82 1013.4
20260510112517 11 240 12.9 25.7 0.23 1.24 0.46 83 1013.2
20260510112017 11 245 19.3 27.4 0.23 1.24 0.46 82 1012.9
20260510111517 11 269 11.3 22.5 0.23 1.24 0.46 85 1012.6
20260510111017 11 282 11.3 27.4 0.23 1.24 0.46 86 1012.6
20260510110518 11 288 16.1 32.2 0.23 1.24 0.46 87 1012.5
20260510110017 11 278 11.3 24.1 0.23 1.24 0.46 87 1012.4
20260510105017 12 223 14.5 32.2 0.23 1.22 0.43 84 1012.3
20260510104517 13 226 11.3 24.1 0.05 1.04 0.25 80 1012.1
20260510104017 13 185 16.1 33.8 0.00 0.99 0.23 77 1011.9
20260510103018 13 188 19.3 40.2 0.00 0.99 0.23 76 1011.8
20260510101519 13 177 22.5 37.0 0.00 1.02 0.23 79 1012.0
20260510101019 13 186 16.1 32.2 0.00 1.02 0.23 80 1012.1
20260510100508 13 174 14.5 27.4 0.00 1.02 0.23 81 1012.1
20260510100019 13 170 16.1 33.8 0.00 1.02 0.23 82 1012.2
20260510095518 12 186 12.9 22.5 0.00 1.02 0.23 84 1012.3
20260510095019 12 180 11.3 19.3 0.00 1.02 0.23 83 1012.2
20260510094519 12 182 14.5 24.1 0.00 1.02 0.23 82 1012.4
20260510094008 12 166 12.9 19.3 0.00 1.02 0.23 81 1012.4
20260510093519 12 182 14.5 24.1 0.00 1.02 0.23 82 1012.3
20260510093019 12 187 12.9 20.9 0.00 1.02 0.23 84 1012.4
20260510092508 12 191 11.3 19.3 0.00 1.02 0.23 85 1012.4
20260510092019 12 183 11.3 19.3 0.00 1.04 0.23 85 1012.6
20260510091019 12 175 12.9 20.9 0.00 1.09 0.23 85 1012.6
20260510090008 11 191 9.7 19.3 0.03 1.09 0.23 89 1012.7
20260510085519 11 188 9.7 16.1 0.03 1.09 0.23 89 1012.7
20260510085019 11 184 9.7 20.9 0.03 1.09 0.23 89 1012.8
20260510084519 11 174 11.3 19.3 0.05 1.09 0.23 89 1013.0
20260510084018 11 177 9.7 19.3 0.05 1.09 0.23 89 1012.8
20260510083019 11 188 12.9 24.1 0.05 1.09 0.23 89 1012.9
20260510082518 11 183 11.3 16.1 0.05 1.09 0.23 90 1012.8
20260510082019 11 202 9.7 24.1 0.05 1.09 0.23 89 1013.0
20260510081519 11 186 11.3 24.1 0.05 1.09 0.23 88 1012.8
20260510081019 11 194 11.3 22.5 0.05 1.09 0.23 88 1012.8
20260510080508 11 207 14.5 20.9 0.05 1.09 0.23 87 1013.1
20260510080020 11 196 9.7 19.3 0.03 1.09 0.20 89 1013.1
20260510075519 11 197 11.3 19.3 0.03 1.09 0.20 89 1013.2
20260510074019 11 194 11.3 16.1 0.00 1.07 0.18 89 1013.3
20260510073519 11 182 8.0 16.1 0.00 1.07 0.18 90 1013.2
20260510073019 11 197 9.7 16.1 0.00 1.07 0.18 90 1013.1
20260510071520 10 178 6.4 11.3 0.00 1.07 0.18 92 1013.0
20260510071019 10 180 4.8 8.0 0.00 1.07 0.18 92 1013.1
20260510070522 10 180 4.8 9.7 0.00 1.07 0.18 92 1013.1
20260510070019 10 192 4.8 11.3 0.00 1.07 0.18 92 1013.1
20260510065518 10 205 3.2 4.8 0.00 1.07 0.18 93 1013.1
20260510065019 10 175 6.4 9.7 0.00 1.07 0.18 93 1013.0
20260510064519 10 190 8.0 9.7 0.00 1.07 0.18 93 1012.9
20260510064019 10 189 3.2 8.0 0.00 1.07 0.18 93 1012.8
20260510063519 9 197 4.8 8.0 0.00 1.07 0.18 93 1012.9
20260510063019 9 194 3.2 8.0 0.00 1.07 0.18 94 1012.8
20260510062518 9 168 0.0 8.0 0.00 1.07 0.18 94 1012.8
20260510062019 9 174 1.6 4.8 0.00 1.07 0.18 94 1012.8
20260510060507 8 186 0.0 1.6 0.00 1.07 0.18 94 1012.7
20260510060019 8 186 0.0 1.6 0.00 1.07 0.18 94 1012.8
20260510055518 8 186 0.0 1.6 0.00 1.07 0.18 94 1012.7
20260510055018 8 186 0.0 3.2 0.00 1.07 0.18 94 1012.6
20260510054519 8 186 1.6 4.8 0.00 1.07 0.18 94 1012.6
20260510054007 8 200 3.2 4.8 0.00 1.07 0.18 94 1012.5
20260510053518 8 193 3.2 4.8 0.00 1.07 0.18 94 1012.6
20260510053019 8 196 1.6 4.8 0.00 1.07 0.18 95 1012.5
20260510052518 8 196 3.2 4.8 0.00 1.07 0.18 95 1012.4
20260510052018 8 196 0.0 0.0 0.00 1.07 0.18 95 1012.3
20260510051518 8 196 0.0 4.8 0.00 1.07 0.18 94 1012.3
20260510051018 8 196 0.0 0.0 0.00 1.07 0.18 93 1012.3
20260510050518 8 196 0.0 0.0 0.00 1.07 0.18 93 1012.4
20260510050019 8 196 0.0 0.0 0.00 1.07 0.18 94 1012.3
20260510045019 8 196 0.0 0.0 0.00 1.07 0.18 94 1012.4
20260510044519 8 196 0.0 0.0 0.00 1.07 0.18 93 1012.4
20260510043507 8 196 0.0 0.0 0.00 1.07 0.18 93 1012.5
20260510043019 8 196 0.0 0.0 0.00 1.07 0.18 93 1012.4
20260510042518 8 196 0.0 0.0 0.00 1.07 0.18 93 1012.5
20260510042018 8 196 0.0 3.2 0.00 1.07 0.18 93 1012.6
20260510041519 8 196 3.2 4.8 0.00 1.07 0.18 94 1012.5
20260510041019 8 164 1.6 8.0 0.00 1.07 0.18 94 1012.4
20260510040519 8 150 1.6 4.8 0.00 1.07 0.18 94 1012.4
20260510040019 8 150 0.0 3.2 0.00 1.07 0.18 94 1012.5
20260510035508 8 150 0.0 0.0 0.00 1.07 0.18 94 1012.5
20260510034519 9 150 1.6 4.8 0.00 1.07 0.18 94 1012.5
20260510034019 9 164 1.6 4.8 0.00 1.07 0.18 94 1012.7
20260510033519 9 171 3.2 8.0 0.00 1.07 0.18 94 1012.8
20260510033018 9 185 3.2 4.8 0.00 1.07 0.18 94 1012.8
20260510032518 9 197 1.6 4.8 0.00 1.07 0.18 93 1012.8
20260510032018 9 169 3.2 4.8 0.00 1.07 0.18 94 1012.9
20260510031518 9 173 1.6 4.8 0.00 1.07 0.18 93 1012.9
20260510031018 9 181 3.2 4.8 0.00 1.07 0.18 93 1013.0
20260510030519 9 191 0.0 4.8 0.00 1.07 0.18 94 1013.0
20260510025008 9 190 8.0 11.3 0.00 1.07 0.18 93 1013.0
20260510023519 9 186 4.8 8.0 0.00 1.07 0.18 93 1013.1
20260510023019 10 175 3.2 4.8 0.00 1.07 0.18 93 1013.1
20260510022519 10 191 4.8 9.7 0.00 1.07 0.18 93 1013.1
20260510022018 10 193 4.8 8.0 0.00 1.07 0.18 93 1013.1
20260510021519 10 191 4.8 11.3 0.00 1.07 0.18 93 1013.2
20260510021018 10 182 8.0 9.7 0.00 1.07 0.18 93 1013.2
20260510020519 10 192 4.8 9.7 0.00 1.07 0.18 93 1013.0
20260510020018 10 183 3.2 8.0 0.00 1.07 0.18 93 1013.0
20260510015518 10 188 4.8 8.0 0.00 1.07 0.18 93 1013.0
20260510015008 10 178 4.8 8.0 0.00 1.07 0.18 92 1013.0
20260510014519 10 191 3.2 4.8 0.00 1.07 0.18 92 1013.0
20260510014018 10 189 4.8 8.0 0.00 1.07 0.18 92 1013.0
20260510013507 10 201 0.0 8.0 0.00 1.07 0.18 92 1013.0
20260510013019 10 201 3.2 8.0 0.03 1.07 0.18 92 1013.0
20260510012018 10 188 4.8 8.0 0.03 1.07 0.18 92 1013.1
20260510011508 10 188 4.8 8.0 0.03 1.07 0.18 92 1013.0
20260510011018 10 165 4.8 8.0 0.03 1.07 0.18 92 1013.0
20260510010508 10 191 3.2 4.8 0.03 1.07 0.18 92 1013.0
20260510010008 10 189 4.8 8.0 0.03 1.07 0.18 91 1013.2
20260510005507 10 191 1.6 8.0 0.03 1.07 0.18 91 1013.1
20260510004507 10 186 3.2 8.0 0.03 1.07 0.18 91 1013.1
20260510004007 10 160 3.2 9.7 0.03 1.07 0.18 91 1013.1
20260510003507 10 183 6.4 11.3 0.05 1.07 0.18 90 1013.2
20260510003008 10 196 8.0 11.3 0.03 1.04 0.15 90 1013.3
20260510002508 10 190 8.0 12.9 0.05 1.04 0.15 90 1013.3
20260510002008 10 187 4.8 9.7 0.05 1.04 0.15 90 1013.2
20260510001507 10 217 3.2 9.7 0.05 1.04 0.15 90 1013.2
20260510001008 10 208 4.8 12.9 0.15 1.04 0.15 90 1013.2
20260510000508 10 210 4.8 14.5 0.15 1.04 0.15 90 1013.2
20260510000008 10 200 8.0 14.5 0.15 1.04 0.15 90 1013.2
20260509235510 10 205 8.0 11.3 0.15 1.04 0.15 90 1013.2
20260509235007 10 201 4.8 9.7 0.15 1.04 0.15 90 1013.3
20260509234507 10 206 8.0 12.9 0.15 1.04 0.15 90 1013.3
20260509234008 10 209 6.4 12.9 0.15 1.04 0.15 91 1013.2
20260509233508 10 216 8.0 12.9 0.15 1.02 0.15 91 1013.2
20260509233007 10 214 8.0 14.5 0.15 1.02 0.15 91 1013.4
20260509232507 10 199 8.0 14.5 0.13 0.99 0.13 92 1013.4
20260509232007 10 240 6.4 12.9 0.13 0.99 0.13 92 1013.6
20260509231507 10 211 3.2 9.7 0.10 0.99 0.10 92 1013.5
20260509231007 10 197 8.0 12.9 0.00 0.89 0.00 91 1013.6
20260509230507 10 187 4.8 9.7 0.00 0.89 0.00 90 1013.3
20260509230008 10 181 4.8 8.0 0.00 0.89 0.00 90 1013.2
20260509225507 10 197 4.8 8.0 0.00 0.89 0.00 90 1013.1
20260509224508 10 211 1.6 4.8 0.00 0.89 0.00 90 1013.1
20260509223508 10 206 3.2 8.0 0.00 0.89 0.00 89 1013.0
20260509223008 10 193 8.0 14.5 0.00 0.89 0.00 89 1013.0
20260509222507 10 176 4.8 11.3 0.00 0.89 0.00 89 1012.8
20260509222007 10 189 6.4 9.7 0.03 0.89 0.00 87 1012.6
20260509221507 10 187 6.4 11.3 0.05 0.89 0.00 86 1012.6
20260509220508 10 211 6.4 16.1 0.08 0.89 0.00 86 1012.6
20260509215507 10 256 8.0 16.1 0.23 0.89 0.89 88 1012.5
20260509215007 10 252 4.8 12.9 0.23 0.89 0.89 89 1012.5
20260509214508 10 250 8.0 12.9 0.23 0.89 0.89 89 1012.5
20260509214007 10 261 8.0 14.5 0.23 0.89 0.89 89 1012.5
20260509213507 10 262 9.7 19.3 0.23 0.89 0.89 89 1012.5
20260509213007 10 267 9.7 20.9 0.23 0.89 0.89 90 1012.6
20260509212507 10 283 8.0 14.5 0.23 0.89 0.89 90 1012.6
20260509212007 10 287 11.3 19.3 0.20 0.86 0.86 89 1012.6
20260509211507 10 280 8.0 22.5 0.20 0.86 0.86 89 1012.7
20260509211007 10 273 14.5 27.4 0.15 0.81 0.81 88 1012.7
20260509210008 11 294 12.9 24.1 0.13 0.79 0.79 85 1012.6
20260509205507 12 275 22.5 41.8 0.00 0.66 0.66 78 1012.6
20260509204507 13 194 14.5 25.7 0.00 0.66 0.66 75 1011.1
20260509204007 13 191 11.3 22.5 0.00 0.66 0.66 75 1011.0
20260509203508 13 188 16.1 25.7 0.00 0.66 0.66 74 1011.0
20260509203007 13 196 14.5 24.1 0.00 0.66 0.66 75 1010.9
20260509202507 13 188 11.3 22.5 0.00 0.66 0.66 75 1010.8
20260509202007 13 191 11.3 24.1 0.00 0.66 0.66 75 1010.7
20260509201507 13 194 11.3 25.7 0.00 0.66 0.66 76 1010.6
20260509201007 13 179 6.4 16.1 0.00 0.66 0.66 76 1010.5
20260509200507 13 186 9.7 19.3 0.00 0.66 0.66 76 1010.3
20260509200008 13 188 14.5 24.1 0.00 0.66 0.66 76 1010.3
20260509195507 13 182 9.7 19.3 0.00 0.66 0.66 76 1010.2
20260509195007 13 177 9.7 19.3 0.00 0.66 0.66 76 1010.1
20260509194507 13 173 9.7 19.3 0.00 0.66 0.66 76 1010.0
20260509194007 13 179 9.7 20.9 0.00 0.66 0.66 76 1009.9
20260509193507 13 171 11.3 22.5 0.00 0.66 0.66 77 1009.8
20260509193007 13 193 12.9 20.9 0.00 0.66 0.66 79 1009.7
20260509192507 13 190 9.7 19.3 0.00 0.66 0.66 82 1009.6
20260509192007 13 167 9.7 16.1 0.00 0.66 0.66 83 1009.4
20260509191507 13 160 6.4 11.3 0.00 0.66 0.66 83 1009.4
20260509191007 13 131 0.0 4.8 0.00 0.66 0.66 83 1009.4
20260509190507 13 154 1.6 4.8 0.00 0.66 0.66 83 1009.5
20260509190008 14 206 4.8 9.7 0.00 0.66 0.66 82 1009.4
20260509185507 14 191 4.8 9.7 0.00 0.66 0.66 82 1009.4
20260509185007 14 167 4.8 11.3 0.00 0.66 0.66 82 1009.2
20260509184509 14 179 8.0 16.1 0.00 0.66 0.66 82 1009.3